Flag for Germany Weather past 2 weeks in Cottbus, Brandenburg, Germany

Now
62 °F

Light rain. Low clouds.


Feels Like: 62 °F
Forecast: 55 / 62 °F
Wind: 1 mph from South

Location: Cottbus

Current Time: Aug 31, 2014 at 1:06:31 PM

Latest Report: Aug 31, 2014 at 12:00 PM


Visibility: 4 mi

Pressure: 29.91 "Hg

Humidity: 93%

Dew point: 59 °F

Location of CottbusLocation

Historic Weather in Cottbus — Graph

°F

Cottbus temperature yesterday

Maximum temperature yesterday: 73 °F (at 3:00 PM)
Minimum temperature yesterday: 58 °F (at 12:00 AM)
Average temperature yesterday: 63 °F

Past Weeks' High & Low Weather Summary

 TemperatureHumidityPressure
High75 °F (Aug 29, 4:00 PM)100% (Aug 27, 7:00 AM)30.09 "Hg (Aug 27, 7:00 AM)
Low43 °F (Aug 25, 6:00 AM)32% (Aug 28, 4:00 PM)29.67 "Hg (Aug 18, 3:00 PM)
Average59 °F74%29.92 "Hg
* Reported Aug 16 12:00 Noon — Aug 31 12:00 Noon, Cottbus, Weather by CustomWeather, © 2014

Note: Actual official high and low records may vary slightly from our data, if they occured in-between our weather recording intervals... More about our weather records

Advertising

Cottbus weather history for previous 24 hours

 ConditionsComfort  
Time TempWeatherWind HumidityBarometerVisibility
12:00 PM
Aug 31
62 °FLight rain. Low clouds.1 mph93%29.91 "Hg4 mi
11:00 AM61 °FLight rain. Overcast.1 mph92%29.92 "Hg5 mi
10:00 AM61 °FLight rain. Low clouds.1 mph93%29.92 "Hg6 mi
9:00 AM60 °FLight rain. Overcast.2 mph96%29.93 "Hg5 mi
8:00 AM60 °FLight rain. Overcast.2 mph93%29.93 "Hg5 mi
7:00 AM60 °FOvercast.2 mph94%29.93 "Hg6 mi
6:00 AM59 °FOvercast.1 mph94%29.94 "Hg6 mi
5:00 AM60 °FOvercast.2 mph94%29.95 "Hg8 mi
4:00 AM60 °FLight rain. Overcast.1 mph95%29.97 "Hg4 mi
3:00 AM61 °FLight rain. Overcast.2 mph89%29.98 "Hg11 mi
2:00 AM63 °FOvercast.2 mph80%29.99 "Hg16 mi
1:00 AM63 °FOvercast.2 mph79%29.99 "Hg14 mi
12:00 AM61 °FOvercast.1 mph87%30.00 "Hg12 mi
11:00 PM
Aug 30
60 °FOvercast.1 mph89%30.00 "Hg11 mi
10:00 PM59 °FOvercast.1 mph91%30.01 "Hg9 mi
9:00 PM59 °FPassing clouds.1 mph90%30.01 "Hg8 mi
7:00 PM69 °FOvercast.2 mph58%29.99 "Hg22 mi
6:00 PM70 °FOvercast.2 mph54%30.00 "Hg22 mi
5:00 PM70 °FOvercast.2 mph56%30.00 "Hg17 mi
4:00 PM72 °FOvercast.5 mph52%30.00 "Hg22 mi
3:00 PM73 °FOvercast.2 mph57%30.01 "Hg22 mi
2:00 PM69 °FOvercast.2 mph68%30.02 "Hg19 mi
1:00 PM69 °FPartly sunny.3 mph65%30.03 "Hg19 mi
Weather by CustomWeather, © 2014

See weather overviewHow to use our weather pages